Weather in Sheremetyevo

Russia / Ryazan Oblast     53°34′19″N   40°05′06″E
temp.,
°C
wind,
m/s
gust,
m/s
humid.,
%
clouds,
%
prec.,
mm/h
press.,
hPa
HPBL,
m
3 march, wed
wed300:00−2nw5119499 0.1 1009310
03:00−1nw6129498 0.1 1011666
06:00−2nnw71393100 0.4 1012751
09:00−5nnw6129092 0.5 1015524
12:00−3nw6108769 0.0 1016738
15:00−2nw5108656 0.0 1016843
18:00−3w4109092 0.1 1015257
21:00−1w4119195 0.1 1015571
4 march, thu
thu400:00−2w61391100 0.1 1012679
03:00−3wsw6138998 0.1 1010442
06:00−1wsw81592100 0.1 1007576
09:00−1wsw81787100 0.1 1006636
12:000w81388100 0.0 1005829
15:00+1wsw61191100 0.0 1004741
18:000wsw51092100 0.0 1002544
21:000wsw41096100 0.1 1002556
5 march, fri
fri500:000wsw4895100 0.1 1000332
03:00−1w4798100 0.5 1000328
06:00−4n4896100 0.9 1003396
09:00−5nnw369695 0.9 1006199
12:00−4nw349138 0.0 1007353
15:00−3w248919 0.0 1010388
18:00−6wsw349220 0.0 101151
21:00−8wnw349150 0.0 101361
6 march, sat
sat600:00−9nw2387100 0.0 101532
03:00−10nw2387100 0.0 101621
06:00−12nw238759 0.0 101521
09:00−11nw238929 0.0 101675
12:00−8wnw238520 0.0 1016266
15:00−6nw128558 0.0 1015415
18:00−8n3596100 0.4 1016149
21:00−12nnw359084 0.4 101780
7 march, sun
sun700:00−14wnw33875 0.0 101827
03:00−14wsw47912 0.0 1017111
06:00−12sw6138835 0.0 1013269
09:00−7sw9177968 0.0 1010731
12:00−5sw111886100 0.1 10051222
15:00−3wsw122088100 0.4 10011257
18:00−2wsw101987100 0.4 9981203
21:00−2wnw81496100 1.9 997796